Regional Weather Roundup
Issued by NWS Mt. Holly, NJ

Home | Current Version | Previous Version | Text Only | Print | Product List | Glossary On
Versions: 1 2 3 4 5 6 7 8 9 10 11 12 13 14 15 16 17 18 19 20 21 22 23 24 25 26 27 28 29 30 31 32 33 34 35 36 37 38 39 40 41 42 43 44 45 46 47 48 49 50
000
ASUS41 KPHI 231213
RWRPHI

REGIONAL WEATHER ROUNDUP
NATIONAL WEATHER SERVICE MOUNT HOLLY NJ
800 AM EDT MON APR 23 2018

NOTE:  "FAIR" INDICATES FEW OR NO CLOUDS BELOW 12,000 FEET WITH NO
SIGNIFICANT WEATHER AND/OR OBSTRUCTIONS TO VISIBILITY.

 * = STATION DOES NOT REPORT PRECIPITATION (E.G. RAIN, SNOW, ETC.)
        OR FOG.

NJZ015>026-231300-
SOUTHERN NEW JERSEY

CITY           SKY/WX    TMP DP  RH WIND       PRES   REMARKS
POMONA         FAIR      47  42  83 CALM      30.47R
6HR MIN TEMP:  33; 6HR MAX TEMP:  47;

WILDWOOD*      FAIR      49  42  77 E5        30.48R
MILLVILLE      FAIR      44  40  85 CALM      30.47R
WRIGHTSTOWN    FAIR      44  38  79 CALM      30.44R
MOUNT HOLLY    FAIR      46  39  76 CALM      30.46R
TRENTON        FAIR      50  32  50 N5        30.46R
6HR MIN TEMP:  38; 6HR MAX TEMP:  50;


$$
NJZ001>014-231300-
NORTHERN NEW JERSEY

CITY           SKY/WX    TMP DP  RH WIND       PRES   REMARKS
SUSSEX         FAIR      38  31  76 CALM      30.48R
ANDOVER*         N/A     43  30  60 CALM      30.47R
MORRISTOWN     SUNNY     45  34  65 CALM      30.48R
NEWARK         FAIR      50  31  48 N9        30.46R
TETERBORO      FAIR      48  30  49 N7        30.47R
CALDWELL       FAIR      47  30  51 NE3       30.47R
SOMERVILLE     FAIR      41  32  70 CALM      30.45R
ALLAIRE*       FAIR      47  35  63 NW3       30.47R
TOMS RIVER*    FAIR      42  35  76 CALM      30.48R

$$
PAZ043-044-047-054-055-060>062-066>071-231300-
EASTERN PENNSYLVANIA

CITY           SKY/WX    TMP DP  RH WIND       PRES   REMARKS
PHILADELPHIA   FAIR      48  40  73 CALM      30.46R
6HR MIN TEMP:  43; 6HR MAX TEMP:  48;

NORTH PHILA    FAIR      52  38  58 CALM      30.48R
BLUE BELL*     FAIR      48  37  66 CALM      30.47R
DOYLESTOWN     FAIR      49  30  48 NE6       30.45R
QUAKERTOWN*    SUNNY     43  34  70 CALM      30.46R
PERKASIE*      FAIR      48  36  61 CALM      30.46R
POTTSTOWN      FAIR      46  36  68 CALM      30.47R
LANCASTER      FAIR      44  38  79 CALM      30.44R
COATESVILLE    FAIR      50  37  62 CALM      30.45R
READING        FAIR      44  37  76 N5        30.45R
6HR MIN TEMP:  37; 6HR MAX TEMP:  46;

ALLENTOWN      FAIR      46  32  58 NE5       30.46R
6HR MIN TEMP:  33; 6HR MAX TEMP:  46;

MOUNT POCONO   FAIR      46  17  31 E6        30.44R
6HR MIN TEMP:  27; 6HR MAX TEMP:  46;

HAZLETON       FAIR      48  19  32 E3        30.46R
LEHIGHTON      FAIR      36  32  87 CALM      30.49R
WILKES BARRE   FAIR      43  22  43 E5        30.45R

$$
DEZALL-MDZ008-012-015-019-020-231300-
DELAWARE AND EASTERN MARYLAND

CITY           SKY/WX    TMP DP  RH WIND       PRES   REMARKS
WILMINGTON     FAIR      48  42  80 S3        30.46R
6HR MIN TEMP:  40; 6HR MAX TEMP:  48;

DOVER          FAIR      49  43  78 CALM      30.46R
GEORGETOWN     FAIR      49  42  77 E3        30.46R
6HR MIN TEMP:  38; 6HR MAX TEMP:  50;

EASTON         MOSUNNY   55  39  54 CALM      30.48R
ABERDEEN       MOSUNNY   49  43  81 E3        30.46R
PATUXENT       PTSUNNY   56  47  71 E7        30.43
OCEAN CITY     FAIR      51  46  83 SE5       30.46R
WALLOPS ISLAND PTSUNNY   53  45  74 E5        30.44S
CAMBRIDGE      SUNNY     50  43  76 CALM      30.44S
SALISBURY      FAIR      50  44  80 E5        30.44R

$$
PAZ001-021-NYZ056-072-MDZ011-DCZ001-231300-
OTHER NEARBY LOCATIONS

CITY           SKY/WX    TMP DP  RH WIND       PRES   REMARKS
HARRISBURG     FAIR      48  37  65 CALM      30.44R
STATE COLLEGE  SUNNY     45  27  49 CALM      30.41R
WILLIAMSPORT   FAIR      39  26  59 CALM      30.45R
BINGHAMTON     FAIR      38  21  50 E3        30.42S
NEW YORK CITY  FAIR      51  25  36 NE5       30.49R
BALTIMORE      PTSUNNY   53  43  68 E5        30.43R
WASHINGTON DC  PTSUNNY   53  41  63 S3        30.44R

$$



USA.gov is the U.S. government's official web portal to all federal, state and local government web resources and services.